z/d,0,0,50,50,100,100,150,150,200,200,300,300,400,400,500,500,600,600,750,750,1000,1000,1250,1250,1500,1500,1750,1750,1900,1900,2000,2000
2019.02.11-01:00,1.83,279.76,1.87,279.84,1.96,283.29,1.99,286.94,1.76,284.28,1.71,282.87,1.67,278.79,1.67,279.07,1.54,280.53,1.45,276.32,1.23,274.16,1.00,267.31,.88,263.71,.82,252.15,.78,244.81,.21,228.61
2019.02.11-02:00,1.86,278.76,1.91,278.94,1.95,283.05,1.93,287.86,1.75,284.77,1.74,284.36,1.68,279.68,1.68,279.20,1.52,280.21,1.43,275.03,1.23,273.09,1.02,265.04,.88,262.13,.83,253.30,.79,245.57,.21,229.81
2019.02.11-03:00,1.87,277.10,1.90,277.55,1.90,281.10,1.82,286.87,1.70,284.89,1.73,285.36,1.67,281.19,1.66,279.51,1.52,279.55,1.42,273.80,1.26,271.84,1.07,263.99,.91,261.50,.86,255.78,.81,247.73,.22,233.04
2019.02.11-04:00,1.81,274.57,1.82,275.10,1.81,278.00,1.69,283.18,1.61,284.43,1.67,284.64,1.65,282.95,1.65,280.20,1.53,279.02,1.44,273.39,1.30,270.90,1.15,264.08,.97,261.58,.90,258.45,.85,250.44,.22,237.37
2019.02.11-05:00,1.78,273.17,1.78,273.49,1.78,276.55,1.62,278.39,1.55,282.96,1.65,283.35,1.68,284.60,1.68,281.27,1.57,279.15,1.47,273.54,1.34,270.17,1.20,263.80,1.03,261.06,.94,259.19,.89,251.26,.23,239.66
2019.02.11-06:00,1.83,274.02,1.83,273.84,1.82,276.66,1.67,274.94,1.57,280.48,1.70,282.70,1.75,285.42,1.74,282.18,1.60,279.57,1.48,273.66,1.33,269.51,1.21,262.86,1.05,260.12,.95,258.50,.90,250.54,.23,240.06
2019.02.11-07:00,1.92,275.85,1.90,275.46,1.86,276.96,1.79,273.03,1.66,277.82,1.80,282.46,1.78,284.43,1.80,282.23,1.61,279.39,1.48,273.61,1.30,268.63,1.21,262.04,1.05,259.76,.95,258.21,.90,250.34,.23,241.24
2019.02.11-08:00,1.96,277.22,1.93,277.03,1.92,277.94,1.93,273.64,1.77,276.37,1.87,282.43,1.78,281.54,1.82,281.34,1.59,278.07,1.47,273.04,1.26,266.95,1.20,261.55,1.04,260.06,.93,258.83,.88,251.42,.23,243.65
2019.02.11-09:00,1.96,276.29,1.94,276.87,1.99,279.43,2.06,276.37,1.88,276.00,1.88,282.05,1.80,278.09,1.80,279.88,1.56,275.79,1.44,271.95,1.24,264.63,1.19,261.46,1.02,260.99,.89,260.26,.83,253.65,.22,246.49
2019.02.11-10:00,1.96,274.82,1.96,276.07,2.02,280.85,2.11,279.61,1.96,276.49,1.87,281.06,1.83,275.20,1.75,278.05,1.53,272.93,1.41,270.39,1.23,262.18,1.18,261.62,.99,262.47,.83,262.21,.77,256.45,.20,249.07
2019.02.11-11:00,1.97,275.34,1.98,276.41,2.02,281.87,2.10,281.75,2.04,277.67,1.85,279.67,1.84,272.62,1.68,275.47,1.51,269.74,1.37,268.45,1.23,260.30,1.15,262.00,.94,264.39,.76,264.58,.69,259.48,.18,250.95
2019.02.11-12:00,2.00,277.77,2.00,278.73,2.00,282.70,2.10,283.15,2.08,279.10,1.82,277.74,1.84,269.94,1.62,272.16,1.51,267.11,1.35,266.54,1.23,259.62,1.13,262.27,.90,266.11,.69,266.55,.62,261.71,.16,250.97
2019.02.11-13:00,2.08,281.43,2.03,282.35,2.01,282.85,2.10,284.45,2.06,279.83,1.80,275.12,1.83,267.46,1.58,268.56,1.52,265.36,1.33,264.75,1.24,260.03,1.11,262.41,.86,267.25,.64,267.63,.57,262.49,.15,249.29
2019.02.11-14:00,2.21,284.74,2.10,285.69,2.06,282.69,2.08,285.39,2.02,280.24,1.79,272.92,1.81,265.96,1.55,265.14,1.51,263.92,1.31,262.72,1.23,260.77,1.10,262.58,.84,267.67,.62,267.65,.55,261.60,.15,246.75
2019.02.11-15:00,2.32,286.35,2.20,287.38,2.15,282.61,2.08,285.01,1.99,280.49,1.80,271.67,1.78,265.85,1.53,262.40,1.50,262.60,1.29,260.44,1.22,261.31,1.10,263.01,.83,267.45,.62,267.03,.56,259.56,.16,243.77
2019.02.11-16:00,2.33,286.54,2.28,287.82,2.24,282.42,2.07,283.32,1.94,279.88,1.81,271.80,1.75,266.74,1.54,260.86,1.51,261.70,1.30,258.60,1.21,261.88,1.09,263.66,.82,267.28,.63,267.30,.58,258.80,.16,242.66
2019.02.11-17:00,2.03,284.93,2.00,286.58,2.06,281.42,1.89,280.88,1.75,277.34,1.74,273.87,1.70,267.47,1.55,260.95,1.53,260.76,1.34,257.93,1.23,262.87,1.14,264.63,.88,267.99,.71,269.83,.67,262.18,.19,248.17
2019.02.11-18:00,1.61,285.53,1.57,287.06,1.74,282.88,1.61,281.44,1.51,276.50,1.58,276.55,1.64,268.08,1.57,263.22,1.58,261.49,1.42,259.03,1.29,263.74,1.22,265.06,.97,267.38,.82,270.37,.81,264.21,.21,252.94
2019.02.11-19:00,1.56,285.47,1.56,286.05,1.73,282.81,1.63,281.00,1.54,276.17,1.56,276.47,1.65,268.44,1.63,265.39,1.62,264.13,1.47,261.14,1.30,264.52,1.20,265.13,.96,265.81,.81,269.21,.82,263.92,.21,252.47
2019.02.11-20:00,1.64,283.97,1.65,284.28,1.83,281.18,1.73,279.13,1.67,275.32,1.62,274.94,1.73,269.08,1.71,267.15,1.64,266.19,1.50,264.03,1.29,264.88,1.15,265.29,.91,264.74,.75,268.27,.77,263.90,.19,250.82
2019.02.11-21:00,1.73,283.03,1.74,282.85,1.91,279.37,1.82,276.58,1.78,274.42,1.69,273.15,1.81,269.93,1.76,268.01,1.64,267.04,1.51,267.21,1.29,265.01,1.09,265.66,.85,264.41,.69,268.12,.71,264.75,.17,249.25
2019.02.11-22:00,1.80,282.97,1.81,281.75,1.98,278.25,1.91,275.12,1.86,273.67,1.76,271.97,1.87,270.45,1.78,267.80,1.65,267.71,1.49,269.23,1.28,265.06,1.04,266.10,.81,264.51,.63,268.55,.64,265.99,.15,247.15
2019.02.11-23:00,1.85,282.31,1.85,280.03,2.01,278.06,1.97,275.75,1.92,273.70,1.82,271.93,1.90,271.06,1.80,267.55,1.66,268.87,1.47,269.76,1.27,265.06,1.00,266.44,.76,264.46,.58,268.62,.57,266.43,.14,243.54
2019.02.11-24:00,1.89,280.64,1.94,279.25,1.99,278.54,2.00,278.58,1.94,275.30,1.87,273.24,1.92,272.55,1.80,268.09,1.66,270.33,1.46,269.63,1.27,265.16,.98,266.21,.73,263.42,.53,266.73,.51,264.37,.14,238.22
2019.02.12-01:00,1.97,279.93,2.04,280.92,1.99,279.19,2.00,281.92,1.91,277.24,1.86,274.97,1.88,274.44,1.78,269.34,1.63,271.85,1.45,269.41,1.27,265.57,.96,265.57,.71,262.10,.50,263.81,.48,260.77,.15,234.39
2019.02.12-02:00,2.07,280.61,2.12,282.76,2.07,280.47,1.99,283.63,1.87,277.98,1.84,276.86,1.81,276.03,1.73,270.84,1.58,272.80,1.43,268.85,1.27,265.95,.95,264.71,.72,261.48,.50,262.08,.48,258.27,.16,234.49
2019.02.12-03:00,2.20,281.95,2.24,283.68,2.21,282.72,2.00,284.10,1.88,278.04,1.85,279.24,1.75,277.19,1.68,272.26,1.53,272.98,1.42,267.83,1.26,265.68,.96,263.15,.73,260.94,.52,261.29,.50,256.95,.17,236.37
2019.02.12-04:00,2.31,282.57,2.36,284.14,2.32,284.77,2.06,284.76,1.93,278.74,1.84,281.94,1.70,278.20,1.66,273.70,1.50,272.92,1.43,266.72,1.26,264.53,.98,260.87,.76,259.95,.54,260.70,.53,256.12,.18,238.49
2019.02.12-05:00,2.33,283.04,2.41,284.30,2.38,285.38,2.12,285.68,1.99,280.28,1.81,283.69,1.66,279.03,1.64,274.92,1.49,272.60,1.44,265.51,1.27,262.93,1.02,259.09,.80,259.57,.58,261.56,.57,257.01,.18,242.31
2019.02.12-06:00,2.31,284.18,2.38,284.93,2.42,285.50,2.14,286.69,2.02,282.70,1.76,284.01,1.61,279.35,1.63,275.60,1.49,271.85,1.45,264.17,1.30,261.57,1.07,258.19,.85,259.62,.63,262.97,.61,258.53,.19,246.54
2019.02.12-07:00,1.92,289.96,1.97,290.12,2.13,289.12,1.93,290.51,1.82,287.24,1.64,284.69,1.51,279.35,1.62,276.32,1.53,271.97,1.51,263.76,1.38,261.56,1.19,258.78,.97,260.43,.74,264.72,.72,260.74,.21,251.26
2019.02.12-08:00,1.81,290.77,1.84,290.94,2.06,288.87,1.92,289.09,1.77,286.06,1.63,282.83,1.50,277.33,1.62,275.45,1.59,271.01,1.56,263.59,1.42,262.37,1.21,260.28,.98,262.25,.76,267.49,.73,263.31,.21,254.68
2019.02.12-09:00,1.82,288.18,1.84,288.28,2.09,286.86,1.96,286.02,1.81,282.57,1.68,279.56,1.54,274.50,1.64,273.63,1.63,270.25,1.60,263.85,1.41,263.01,1.19,262.24,.95,265.07,.72,271.36,.69,266.72,.18,258.71
2019.02.12-10:00,1.82,284.95,1.87,285.30,2.11,285.39,1.98,283.59,1.86,279.78,1.72,276.55,1.58,271.75,1.66,272.50,1.66,270.43,1.62,264.47,1.40,263.52,1.16,264.51,.90,268.33,.67,275.84,.63,270.72,.16,262.34
2019.02.12-11:00,1.82,282.45,1.89,283.60,2.11,285.53,2.01,283.14,1.93,279.14,1.76,274.52,1.62,269.68,1.65,272.06,1.64,270.68,1.63,265.40,1.40,264.30,1.13,266.76,.84,271.07,.60,279.93,.56,274.26,.13,263.28
2019.02.12-12:00,1.84,281.35,1.91,283.18,2.10,286.66,2.02,284.26,1.98,280.41,1.82,274.02,1.66,268.75,1.61,271.70,1.59,270.50,1.62,266.62,1.41,265.33,1.11,268.81,.79,272.93,.53,283.21,.49,277.04,.12,260.80
2019.02.12-13:00,1.88,281.49,1.93,283.23,2.09,287.55,2.03,285.53,2.02,282.66,1.88,275.44,1.71,269.00,1.58,271.48,1.54,269.95,1.61,267.86,1.41,266.27,1.09,270.59,.74,273.95,.46,285.52,.43,279.12,.11,256.11
2019.02.12-14:00,1.94,282.01,1.95,282.83,2.08,287.40,2.05,286.08,2.03,284.58,1.89,277.75,1.77,270.12,1.59,271.99,1.51,269.40,1.58,268.93,1.42,267.27,1.07,272.23,.70,274.35,.39,286.37,.38,280.23,.10,251.39
2019.02.12-15:00,2.03,282.57,1.96,281.48,2.07,285.78,2.07,285.91,2.02,285.66,1.86,279.52,1.81,271.94,1.62,273.48,1.51,269.21,1.55,269.73,1.44,268.71,1.05,273.87,.67,274.25,.34,284.85,.34,279.51,.10,247.80
2019.02.12-16:00,2.12,283.57,1.98,279.40,2.11,283.35,2.10,285.25,2.02,286.14,1.84,280.55,1.83,274.25,1.67,275.70,1.53,269.54,1.53,270.35,1.44,270.53,1.02,275.16,.65,273.40,.31,280.02,.32,275.90,.11,244.44
2019.02.12-17:00,2.17,284.79,2.01,278.36,2.15,281.86,2.12,284.82,2.02,286.64,1.84,281.78,1.83,276.39,1.72,278.25,1.58,270.73,1.53,270.91,1.44,272.23,1.00,275.36,.64,271.19,.29,271.01,.30,268.41,.12,241.06
2019.02.12-18:00,2.13,286.97,1.98,279.08,2.11,282.17,2.09,285.05,1.98,287.67,1.82,283.62,1.80,277.76,1.74,280.35,1.64,272.78,1.56,271.64,1.45,273.52,1.00,274.55,.66,268.55,.33,262.48,.34,261.03,.13,241.08
2019.02.12-19:00,2.06,289.47,1.93,280.80,2.03,283.71,2.03,285.42,1.90,288.38,1.77,284.97,1.76,278.36,1.77,280.87,1.70,274.64,1.60,272.83,1.46,274.43,1.01,273.63,.69,266.93,.38,259.37,.39,258.02,.15,243.84
2019.02.12-20:00,2.00,288.92,1.95,281.70,2.03,284.03,2.02,284.29,1.85,286.56,1.75,284.05,1.76,277.76,1.81,280.06,1.75,275.80,1.65,274.44,1.45,275.42,.98,273.19,.69,266.99,.40,261.10,.41,259.38,.15,248.97
2019.02.12-21:00,1.94,286.64,1.96,282.37,2.05,283.83,2.03,282.89,1.83,283.39,1.75,282.03,1.79,276.75,1.85,279.19,1.78,276.83,1.67,275.92,1.44,276.52,.96,272.80,.67,267.71,.40,264.71,.41,262.68,.14,255.13
2019.02.12-22:00,1.93,283.66,1.97,282.72,2.07,283.49,2.06,282.06,1.85,280.13,1.78,280.46,1.83,276.47,1.89,279.04,1.82,278.15,1.68,277.13,1.41,277.59,.92,272.10,.64,267.81,.38,267.70,.39,265.50,.13,259.57
2019.02.12-23:00,1.91,281.38,1.94,282.76,2.08,283.93,2.06,282.09,1.91,278.18,1.83,280.02,1.88,277.20,1.90,279.66,1.84,279.80,1.68,278.20,1.38,278.22,.90,270.96,.61,267.07,.35,269.69,.35,267.33,.12,261.65
2019.02.12-24:00,1.89,279.27,1.90,281.57,2.04,284.64,2.05,282.62,1.97,278.28,1.86,280.54,1.93,278.74,1.90,280.69,1.84,281.45,1.68,279.13,1.34,278.38,.89,269.72,.58,266.22,.32,271.14,.31,268.46,.10,261.36
2019.02.13-01:00,1.94,277.99,1.93,279.78,2.01,284.66,2.04,283.26,2.01,279.67,1.88,281.24,1.98,280.44,1.87,281.64,1.82,282.64,1.68,279.76,1.29,278.09,.87,268.62,.55,265.56,.28,271.79,.27,268.29,.09,257.99
2019.02.13-02:00,2.07,278.89,2.03,279.41,2.01,283.92,2.05,283.62,2.04,280.96,1.90,281.75,2.00,281.84,1.83,282.39,1.79,283.52,1.67,279.99,1.25,277.18,.87,267.66,.53,265.11,.25,270.78,.22,265.64,.09,251.89
2019.02.13-03:00,2.25,281.41,2.19,281.19,2.05,283.14,2.08,283.74,2.06,281.47,1.90,281.85,1.99,282.75,1.78,282.85,1.76,284.08,1.66,279.93,1.22,275.59,.87,266.89,.52,265.15,.22,267.58,.19,259.94,.08,244.72
2019.02.13-04:00,2.41,283.83,2.34,283.92,2.13,282.99,2.11,283.94,2.08,281.39,1.89,281.47,1.98,283.52,1.75,283.33,1.73,284.15,1.64,279.97,1.21,273.58,.88,266.12,.52,265.12,.20,260.54,.18,250.06,.08,236.41
2019.02.13-05:00,2.46,285.63,2.41,286.22,2.20,283.62,2.14,284.30,2.11,281.54,1.90,281.19,1.96,284.54,1.74,284.22,1.70,283.69,1.62,280.27,1.23,271.78,.90,265.08,.54,264.46,.22,249.78,.20,238.01,.10,228.42
2019.02.13-06:00,2.37,287.99,2.31,288.17,2.20,285.39,2.10,285.16,2.11,282.73,1.89,281.74,1.93,285.74,1.74,285.58,1.70,283.16,1.61,280.84,1.29,270.95,.95,263.75,.58,263.36,.27,241.02,.26,230.45,.12,223.48
2019.02.13-07:00,2.19,290.12,2.12,289.24,2.13,287.06,2.03,285.99,2.06,283.91,1.88,282.53,1.89,286.69,1.73,286.47,1.73,282.89,1.61,281.38,1.35,271.35,1.02,263.02,.63,263.25,.34,238.82,.34,229.25,.14,222.89
2019.02.13-08:00,2.09,289.32,2.02,287.48,2.10,286.41,2.02,285.58,2.05,283.60,1.87,282.77,1.84,287.17,1.72,285.81,1.77,282.79,1.61,281.49,1.38,272.39,1.06,263.70,.66,264.52,.39,240.39,.39,230.65,.16,224.32
2019.02.13-09:00,2.08,285.98,2.03,283.88,2.12,284.92,2.05,284.46,2.05,282.49,1.86,282.24,1.77,286.87,1.71,284.08,1.79,282.70,1.60,281.16,1.36,273.36,1.08,265.38,.66,266.79,.42,244.01,.43,233.35,.16,226.69
2019.02.13-10:00,2.12,282.39,2.10,280.98,2.15,284.18,2.06,283.13,2.06,281.44,1.86,280.96,1.71,285.65,1.71,282.43,1.80,282.06,1.58,280.26,1.33,273.68,1.08,267.46,.64,269.48,.43,249.01,.44,236.95,.16,229.51
2019.02.13-11:00,2.13,281.12,2.14,280.26,2.15,284.18,2.07,282.35,2.07,281.07,1.87,279.63,1.66,283.83,1.70,281.09,1.78,280.39,1.56,278.65,1.30,273.20,1.08,269.70,.61,271.96,.42,254.84,.43,241.29,.15,232.73
2019.02.13-12:00,2.09,282.41,2.14,280.98,2.14,284.61,2.06,282.38,2.06,281.70,1.87,279.22,1.61,282.07,1.67,279.82,1.76,278.20,1.55,276.70,1.28,272.20,1.07,271.85,.59,273.51,.40,260.10,.43,245.36,.14,235.49
2019.02.13-13:00,2.02,285.47,2.13,282.48,2.14,285.61,2.06,282.87,2.04,282.81,1.84,279.67,1.57,280.35,1.64,278.14,1.72,276.18,1.55,274.99,1.29,271.35,1.05,273.71,.56,274.52,.37,263.96,.40,248.36,.13,236.66
2019.02.13-14:00,1.94,288.89,2.13,284.58,2.13,286.95,2.08,283.61,2.01,283.77,1.78,280.52,1.55,278.42,1.60,275.86,1.66,274.31,1.53,273.96,1.30,271.10,1.02,275.44,.53,275.60,.33,266.23,.37,250.56,.12,236.78
2019.02.13-15:00,1.86,292.34,2.13,287.41,2.13,288.54,2.10,284.95,1.99,284.54,1.72,281.42,1.54,276.38,1.56,273.36,1.59,272.30,1.49,273.55,1.29,271.38,.98,276.92,.50,276.24,.28,266.05,.35,252.06,.11,236.84
2019.02.13-16:00,1.79,295.61,2.12,290.36,2.11,289.86,2.11,286.57,1.98,285.14,1.67,281.73,1.54,274.47,1.54,271.16,1.54,270.17,1.45,273.26,1.28,271.99,.95,277.94,.48,276.33,.25,263.45,.32,253.05,.11,236.98
2019.02.13-17:00,1.73,296.99,2.11,292.29,2.08,289.75,2.10,287.18,1.96,284.94,1.63,280.70,1.54,272.69,1.53,269.57,1.52,268.60,1.41,272.94,1.27,273.20,.93,279.29,.45,276.64,.23,260.49,.30,255.03,.10,239.05
2019.02.13-18:00,1.67,297.21,2.06,294.08,2.02,288.99,2.04,287.11,1.93,284.32,1.61,279.15,1.56,271.99,1.54,269.21,1.52,268.45,1.38,272.85,1.26,275.05,.91,280.94,.43,275.22,.22,254.31,.29,255.33,.10,240.72
2019.02.13-19:00,1.60,294.94,1.99,294.22,1.97,287.05,1.98,286.10,1.91,283.48,1.63,277.93,1.60,272.87,1.57,270.36,1.55,270.15,1.37,273.47,1.25,277.52,.89,282.50,.41,270.48,.24,244.19,.30,251.64,.10,239.67
2019.02.13-20:00,1.50,289.72,1.88,292.11,1.91,284.40,1.91,284.67,1.87,282.97,1.66,277.56,1.64,274.86,1.59,272.16,1.56,272.60,1.36,274.53,1.24,279.95,.87,283.46,.43,264.95,.30,239.16,.33,249.08,.12,240.42
2019.02.13-21:00,1.44,280.71,1.78,286.89,1.87,281.01,1.84,282.69,1.82,282.19,1.67,277.40,1.65,276.26,1.60,273.80,1.54,274.61,1.34,275.67,1.22,282.29,.86,284.19,.47,262.48,.36,241.54,.38,251.48,.13,245.42
2019.02.13-22:00,1.57,271.88,1.84,280.21,1.94,278.51,1.86,281.51,1.82,281.39,1.70,276.98,1.66,276.63,1.59,275.21,1.52,275.87,1.31,276.71,1.19,284.33,.82,284.49,.48,261.34,.40,244.77,.40,254.87,.14,250.53
2019.02.13-23:00,1.86,269.17,2.02,275.36,2.05,278.56,1.90,282.25,1.85,281.67,1.75,276.87,1.69,276.67,1.58,276.43,1.50,276.62,1.28,277.38,1.14,285.55,.77,283.71,.49,260.08,.41,247.66,.40,258.10,.13,254.71
2019.02.13-24:00,2.12,270.29,2.23,273.95,2.14,280.87,1.93,284.11,1.88,282.84,1.80,277.44,1.73,277.24,1.56,277.79,1.49,277.35,1.26,277.53,1.08,285.62,.72,281.58,.49,258.72,.41,250.62,.38,261.45,.12,258.52
2019.02.14-01:00,2.27,272.48,2.38,275.73,2.20,284.20,1.96,285.73,1.87,283.87,1.84,278.85,1.77,279.14,1.55,279.99,1.48,278.45,1.25,277.41,1.01,284.17,.68,277.74,.50,257.21,.39,253.05,.35,264.10,.11,260.99
2019.02.14-02:00,2.38,274.94,2.46,278.45,2.24,286.87,1.97,286.12,1.85,283.97,1.86,280.68,1.79,281.66,1.54,282.74,1.48,279.62,1.24,277.11,.96,281.28,.66,272.64,.52,256.55,.38,255.59,.33,266.68,.10,263.06
2019.02.14-03:00,2.46,277.13,2.54,280.16,2.27,288.33,2.02,285.66,1.86,283.36,1.86,282.09,1.77,283.36,1.52,284.92,1.47,280.41,1.24,276.51,.93,277.48,.65,267.37,.54,257.59,.37,259.24,.31,270.40,.09,266.20
2019.02.14-04:00,2.50,278.94,2.56,280.67,2.26,289.09,2.08,285.62,1.90,282.73,1.83,282.60,1.73,284.14,1.49,285.81,1.45,280.78,1.24,275.82,.92,273.47,.67,262.85,.55,259.85,.35,263.41,.29,274.79,.08,269.78
2019.02.14-05:00,2.43,280.34,2.47,281.19,2.20,289.41,2.11,286.60,1.93,282.43,1.80,282.31,1.71,284.90,1.47,285.42,1.44,281.09,1.26,275.50,.94,270.21,.71,259.70,.56,262.59,.34,267.01,.26,278.38,.07,272.33
2019.02.14-06:00,2.26,282.13,2.29,282.64,2.07,289.16,2.06,287.85,1.93,282.27,1.78,281.82,1.71,286.12,1.46,284.45,1.43,281.38,1.28,275.62,.98,268.43,.76,258.18,.57,265.08,.32,268.84,.24,279.26,.07,271.40
2019.02.14-07:00,2.07,285.19,2.09,285.51,1.94,288.73,1.97,288.53,1.94,282.54,1.79,282.19,1.71,287.50,1.48,283.51,1.44,281.09,1.31,275.49,1.03,267.84,.82,257.99,.57,266.54,.31,267.22,.22,274.50,.06,262.74
2019.02.14-08:00,1.92,288.34,1.94,288.77,1.85,287.98,1.89,288.30,1.94,283.71,1.81,283.57,1.72,288.44,1.50,282.59,1.44,279.75,1.32,274.62,1.06,267.59,.89,259.14,.58,267.33,.31,262.95,.21,263.91,.06,247.00
2019.02.14-09:00,1.82,288.99,1.84,289.89,1.82,285.55,1.83,286.57,1.92,284.51,1.82,284.86,1.72,288.70,1.52,281.51,1.46,277.73,1.33,273.19,1.09,267.43,.94,261.57,.58,268.43,.32,259.37,.21,253.74,.07,234.96
2019.02.14-10:00,1.78,286.11,1.80,288.18,1.85,282.00,1.82,283.98,1.90,283.82,1.83,285.54,1.70,288.82,1.54,280.37,1.48,275.81,1.34,271.60,1.10,267.28,.97,264.71,.58,269.98,.32,257.36,.22,246.42,.07,227.93
2019.02.14-11:00,1.77,281.52,1.79,284.94,1.93,279.90,1.85,282.03,1.89,282.29,1.82,285.97,1.65,289.19,1.54,279.30,1.50,274.39,1.35,270.39,1.10,267.24,.97,267.98,.57,271.57,.32,256.48,.24,241.69,.08,224.26
2019.02.14-12:00,1.80,277.97,1.81,281.70,2.01,280.49,1.91,281.59,1.91,281.91,1.80,286.56,1.58,289.02,1.51,278.05,1.51,273.48,1.37,270.11,1.10,267.16,.94,270.65,.55,272.81,.31,255.70,.25,238.01,.09,221.33
2019.02.14-13:00,1.85,276.68,1.87,279.91,2.06,282.63,1.97,282.34,1.93,283.37,1.77,287.43,1.50,287.35,1.49,276.51,1.50,273.00,1.37,270.71,1.09,266.89,.90,272.51,.53,273.92,.30,255.48,.25,236.23,.09,219.93
2019.02.14-14:00,1.88,277.93,1.90,280.12,2.11,285.04,2.02,283.43,1.94,285.21,1.73,287.91,1.44,283.82,1.47,274.83,1.49,272.74,1.35,271.74,1.08,266.81,.85,274.08,.49,275.35,.29,256.18,.25,236.16,.09,219.74
2019.02.14-15:00,1.90,280.76,1.93,281.33,2.16,287.17,2.07,284.44,1.95,285.84,1.70,287.19,1.41,279.32,1.46,273.26,1.46,272.51,1.31,272.83,1.08,267.41,.80,276.02,.44,276.96,.26,257.10,.24,236.53,.09,219.78
2019.02.14-16:00,1.92,284.12,1.94,282.82,2.16,289.24,2.12,286.05,1.98,285.47,1.67,286.07,1.43,275.97,1.46,272.25,1.43,272.47,1.29,273.78,1.08,268.73,.74,277.80,.38,277.35,.22,256.00,.22,235.18,.08,218.42
2019.02.14-17:00,1.89,286.30,1.94,283.97,2.09,290.62,2.12,288.15,1.99,285.32,1.67,285.74,1.49,275.10,1.46,271.98,1.41,272.91,1.28,274.61,1.09,270.60,.69,278.85,.34,275.43,.19,251.94,.21,232.56,.07,216.33
2019.02.14-18:00,1.81,286.06,1.91,284.12,1.99,290.31,2.06,289.77,1.98,286.05,1.66,285.47,1.55,276.27,1.47,272.51,1.40,273.96,1.29,275.73,1.10,272.86,.66,279.44,.31,271.31,.18,246.53,.21,231.20,.07,216.40
2019.02.14-19:00,1.76,284.43,1.89,283.40,1.93,288.96,1.98,290.21,1.96,286.86,1.66,284.12,1.64,278.24,1.51,273.81,1.41,275.45,1.30,277.32,1.10,275.08,.63,279.81,.30,265.02,.19,239.28,.22,229.26,.08,216.71
2019.02.14-20:00,1.75,283.50,1.87,282.49,1.91,287.76,1.91,289.46,1.94,286.94,1.69,282.56,1.71,280.17,1.56,275.22,1.43,276.90,1.30,278.82,1.09,276.89,.60,279.41,.31,258.21,.22,234.35,.24,229.22,.08,219.34
2019.02.14-21:00,1.73,283.61,1.83,281.72,1.90,286.31,1.86,287.22,1.93,286.07,1.73,281.71,1.77,281.58,1.60,276.33,1.46,278.00,1.31,279.84,1.07,277.93,.57,277.72,.34,253.77,.26,234.55,.28,232.93,.09,225.37
2019.02.14-22:00,1.73,283.31,1.82,281.43,1.93,284.54,1.86,283.98,1.93,284.93,1.78,281.59,1.82,282.74,1.64,277.19,1.48,278.65,1.31,280.12,1.05,277.96,.55,274.47,.38,251.37,.30,236.77,.30,237.73,.10,231.90
2019.02.14-23:00,1.78,282.33,1.91,280.90,2.01,283.53,1.94,281.55,1.94,284.25,1.84,281.93,1.85,283.67,1.65,277.89,1.50,279.02,1.30,279.75,1.04,277.29,.55,269.71,.42,249.77,.33,239.00,.32,241.83,.10,237.37
2019.02.14-24:00,1.87,281.56,1.98,280.57,2.08,283.63,2.04,281.35,1.94,283.91,1.88,281.87,1.83,284.09,1.65,278.78,1.51,279.53,1.30,279.08,1.03,276.53,.56,264.47,.46,249.01,.36,241.66,.33,245.56,.10,242.34
2019.02.15-01:00,1.97,282.08,2.01,280.98,2.11,284.08,2.10,282.87,1.94,283.34,1.89,280.67,1.78,283.84,1.64,280.03,1.52,280.22,1.30,278.32,1.01,275.83,.58,260.28,.49,250.14,.37,246.41,.34,250.83,.10,249.25
2019.02.15-02:00,2.03,284.03,2.05,282.29,2.12,284.71,2.13,284.76,1.93,282.28,1.89,278.72,1.73,283.10,1.60,281.26,1.51,280.72,1.30,277.46,.98,274.75,.62,257.86,.52,253.11,.38,253.14,.33,257.88,.09,258.22
2019.02.15-03:00,2.08,285.94,2.11,283.97,2.14,285.47,2.14,286.20,1.96,281.29,1.89,277.25,1.70,282.48,1.56,281.98,1.48,280.80,1.29,276.29,.95,272.94,.65,257.14,.54,256.56,.37,260.15,.31,265.07,.08,267.07
2019.02.15-04:00,2.12,286.99,2.17,285.46,2.19,286.37,2.14,287.13,2.03,281.87,1.89,277.13,1.71,282.76,1.53,282.18,1.44,280.52,1.28,274.90,.93,270.32,.69,257.40,.54,259.42,.35,265.87,.28,270.59,.07,273.46
2019.02.15-05:00,2.15,286.48,2.22,286.00,2.23,287.14,2.13,287.48,2.12,284.14,1.89,277.88,1.72,284.06,1.50,282.14,1.40,280.10,1.28,273.89,.93,267.72,.72,258.51,.54,261.96,.32,269.68,.24,273.34,.06,275.10
2019.02.15-06:00,2.15,285.66,2.20,285.95,2.22,287.99,2.09,287.65,2.14,287.12,1.87,279.03,1.71,285.75,1.49,282.22,1.38,279.71,1.28,273.82,.95,266.07,.75,260.19,.55,264.33,.30,270.65,.22,271.33,.05,267.74
2019.02.15-07:00,2.03,285.63,2.07,285.53,2.09,288.56,1.99,286.96,2.08,289.56,1.84,279.99,1.67,286.36,1.48,282.23,1.36,278.98,1.29,274.31,.99,265.66,.79,262.49,.57,267.80,.31,271.22,.22,268.23,.06,259.87
2019.02.15-08:00,1.90,285.37,1.94,284.62,1.96,287.38,1.92,284.80,1.98,289.68,1.83,280.63,1.63,285.03,1.48,281.46,1.36,277.35,1.29,274.46,1.04,266.04,.83,264.93,.59,272.34,.31,272.64,.23,266.80,.06,258.62
2019.02.15-09:00,1.86,283.73,1.93,282.69,1.95,284.39,1.95,281.84,1.93,287.44,1.84,280.79,1.64,282.82,1.50,280.22,1.38,275.42,1.30,274.45,1.08,267.02,.83,267.01,.57,276.35,.28,272.40,.22,263.14,.06,255.98
2019.02.15-10:00,1.82,280.99,1.96,279.91,2.02,281.21,2.01,278.77,1.91,284.47,1.84,280.79,1.68,281.25,1.54,279.41,1.42,274.13,1.31,274.76,1.11,268.62,.84,268.38,.54,278.68,.26,268.64,.21,255.88,.06,249.06
2019.02.15-11:00,1.80,277.38,2.01,276.84,2.12,278.06,2.08,275.68,1.89,281.09,1.83,280.79,1.70,280.33,1.56,278.89,1.46,273.56,1.31,275.28,1.14,270.61,.85,269.62,.51,279.91,.25,263.48,.22,249.17,.06,242.54
2019.02.15-12:00,1.82,275.19,2.07,275.42,2.21,275.76,2.16,273.56,1.89,277.87,1.83,280.64,1.70,279.23,1.58,278.29,1.49,273.71,1.30,275.77,1.14,272.40,.86,271.03,.48,280.15,.24,258.03,.23,244.31,.07,238.25
2019.02.15-13:00,1.87,275.99,2.12,276.12,2.26,274.65,2.21,272.91,1.90,275.16,1.82,280.50,1.70,277.63,1.59,277.50,1.51,274.55,1.29,275.93,1.12,273.59,.85,272.72,.44,279.99,.24,254.06,.24,242.07,.07,236.96
2019.02.15-14:00,1.93,279.23,2.13,277.88,2.26,274.58,2.23,273.47,1.91,273.16,1.82,280.66,1.70,276.05,1.60,276.66,1.51,275.77,1.28,275.58,1.09,274.04,.81,274.83,.40,280.52,.23,253.34,.24,243.19,.08,239.16
2019.02.15-15:00,1.97,282.99,2.10,279.34,2.24,275.70,2.22,275.31,1.94,272.45,1.80,280.83,1.71,275.03,1.62,276.01,1.49,276.83,1.25,274.83,1.04,273.90,.76,277.27,.36,281.89,.21,255.97,.22,247.60,.07,244.60
2019.02.15-16:00,1.99,284.46,2.07,279.52,2.20,277.62,2.18,277.88,1.97,272.87,1.76,280.32,1.73,274.53,1.61,275.77,1.43,277.42,1.22,274.22,.99,273.85,.71,280.08,.32,283.87,.19,261.25,.20,254.70,.07,252.54
2019.02.15-17:00,2.01,282.91,2.06,279.43,2.10,279.66,2.11,280.46,1.98,273.75,1.71,278.99,1.74,274.18,1.58,275.96,1.37,277.61,1.17,274.26,.95,274.59,.65,282.93,.28,285.11,.17,266.25,.18,261.64,.06,259.98
2019.02.15-18:00,2.01,280.61,2.06,280.02,1.99,280.85,2.03,282.23,1.99,274.94,1.67,277.29,1.74,273.81,1.52,276.28,1.32,277.74,1.13,275.21,.93,276.56,.61,285.24,.25,283.68,.16,267.32,.17,264.66,.06,263.13
2019.02.15-19:00,1.96,279.19,2.04,280.66,1.89,280.72,1.96,282.85,1.98,276.96,1.63,275.81,1.72,273.74,1.46,276.33,1.28,277.67,1.11,276.70,.93,279.35,.57,286.24,.22,277.76,.15,262.99,.15,262.16,.05,260.09
2019.02.15-20:00,1.86,278.57,1.97,280.32,1.84,279.44,1.88,282.32,1.93,279.40,1.60,274.40,1.73,274.47,1.43,275.97,1.27,277.17,1.09,277.99,.94,282.35,.56,285.63,.23,268.49,.16,256.27,.16,256.59,.05,253.17